CDT,Max TemperatureF,Mean TemperatureF,Min TemperatureF,Max Dew PointF,MeanDew PointF,Min DewpointF,Max Humidity, Mean Humidity, Min Humidity, Max Sea Level PressureIn, Mean Sea Level PressureIn, Min Sea Level PressureIn, Max VisibilityMiles, Mean VisibilityMiles, Min VisibilityMiles, Max Wind SpeedMPH, Mean Wind SpeedMPH, Max Gust SpeedMPH,PrecipitationIn, CloudCover, Events, WindDirDegrees
2013-3-1,32,29,26,23,21,19,84,77,69,30.25,30.18,30.12,10,9,3,16,9,23,T,8,Snow,312
2013-3-2,36,29,22,23,20,17,84,66,47,30.32,30.25,30.19,10,9,4,15,8,22,T,5,Snow,315
2013-3-3,54,37,20,27,22,16,88,58,28,30.24,30.06,29.87,10,10,8,18,10,22,0.00,2,,143
2013-3-4,62,50,37,45,38,27,93,71,49,29.83,29.72,29.63,10,10,7,16,10,22,0.00,1,,149
2013-3-5,45,38,30,34,26,17,92,64,36,30.27,30.08,29.87,10,10,6,29,17,43,0.01,4,Rain,308
2013-3-6,47,36,24,24,19,17,74,54,34,30.41,30.33,30.27,10,10,8,16,6,25,0.00,1,,320
2013-3-7,60,45,30,30,26,24,78,52,25,30.32,30.26,30.19,10,10,6,17,9,21,0.00,0,,130
2013-3-8,64,49,33,36,31,29,89,58,27,30.30,30.22,30.10,10,10,6,20,12,25,T,2,Rain,137
2013-3-9,69,58,47,55,46,33,72,56,39,30.08,29.87,29.73,10,9,2,32,15,41,0.25,6,Rain-Thunderstorm,158
2013-3-10,58,44,30,55,42,27,96,79,61,29.90,29.77,29.66,10,8,2,23,10,32,1.10,8,Rain,247
2013-3-11,45,37,28,27,24,18,85,61,36,30.05,29.93,29.87,10,10,7,18,10,26,0.00,5,,287
2013-3-12,56,44,31,27,21,16,52,39,26,30.30,30.16,30.05,10,10,10,18,8,28,0.00,2,,303
2013-3-13,51,40,28,21,18,12,75,48,21,30.46,30.39,30.31,10,10,10,15,7,20,0.00,0,,308
2013-3-14,71,50,29,39,29,20,72,48,24,30.38,30.23,30.11,10,10,10,18,8,28,0.00,0,,201
2013-3-15,81,71,60,44,40,36,51,36,20,30.08,29.92,29.77,10,9,3,22,12,32,0.00,1,,233
2013-3-16,77,63,48,47,42,38,66,50,33,29.88,29.79,29.72,10,10,10,20,9,30,0.00,1,,344
2013-3-17,48,44,39,40,38,36,100,83,66,29.94,29.80,29.68,10,4,0,18,10,23,0.33,8,Fog-Rain-Thunderstorm,103
2013-3-18,53,47,40,43,40,28,100,73,46,30.06,29.82,29.70,10,6,0,18,8,28,0.01,6,Fog-Rain,305
2013-3-19,55,43,31,28,22,9,82,50,17,30.26,30.16,30.05,10,10,10,13,5,17,0.00,1,,18
2013-3-20,48,38,27,30,20,12,75,50,25,30.34,30.24,30.14,10,10,10,21,8,29,0.00,2,,308
2013-3-21,42,35,27,31,24,10,100,64,28,30.12,29.94,29.85,10,5,0,20,10,28,0.37,7,Fog-Rain-Snow,122
2013-3-22,34,32,30,34,32,28,100,96,92,29.98,29.91,29.85,10,2,0,14,7,16,0.28,8,Fog-Rain,108
2013-3-23,40,37,34,39,35,33,100,96,92,29.95,29.87,29.74,4,1,0,13,6,16,T,8,Fog-Rain,102
2013-3-24,40,34,27,39,33,18,100,82,63,30.08,29.73,29.61,10,5,0,26,14,41,0.04,8,Fog-Rain-Snow,280
2013-3-25,35,29,23,22,19,16,81,69,56,30.32,30.17,30.04,10,10,9,21,13,30,T,5,Snow,299
2013-3-26,44,36,27,22,21,19,81,61,41,30.42,30.36,30.29,10,10,10,13,6,18,0.00,4,,312
2013-3-27,60,42,24,30,24,20,84,55,26,30.37,30.29,30.20,10,10,3,16,7,21,0.00,1,,130
2013-3-28,70,57,44,44,37,29,66,50,34,30.25,30.19,30.13,10,10,10,13,7,18,0.00,5,,149
2013-3-29,66,58,49,51,48,43,89,73,56,30.22,30.15,30.11,10,9,2,14,5,18,0.14,6,Rain-Thunderstorm,129
2013-3-30,72,62,51,54,49,45,89,65,41,30.13,30.01,29.87,10,10,3,20,9,24,0.03,6,Rain-Thunderstorm,141
2013-3-31,68,58,47,49,42,33,93,61,29,29.97,29.93,29.84,10,10,7,18,4,24,0.04,2,Rain-Thunderstorm,327